Location: Ammerl�gen
(47.2167°N, 9.6000°E)
Time: 13:11:48
(UTC+00:00)

RS-15 - Pass Details

Date: 12 December 2021
Orbit: 1882 x 2162 km, 64.8° (Epoch: 22 January)

Event Time Altitude Azimuth Distance (km) Brightness Sun altitude
Exits shadow 23:40:25 15° 56° (NE) 4,150 9.8 -65.4°
Drops below altitude 10° 23:42:27 10° 49° (NE) 4,604 10.1 -65.3°
Sets 23:46:35 0° 39° (NE) 5,643 10.8 -65.1°
